owner,sensor,date,latitude,longitude,air_pressure(mBar),qcFlag 
WAVCIS,ioos:station:WAVCIS:CSI09:1,2015-11-01T00:00:00Z,29.1015,-89.9782,1010.75,11111222 
WAVCIS,ioos:station:WAVCIS:CSI09:1,2015-11-01T01:00:00Z,29.1015,-89.9782,1011.81,11111222 
WAVCIS,ioos:station:WAVCIS:CSI09:1,2015-11-01T02:00:00Z,29.1015,-89.9782,1011.86,11111222 
WAVCIS,ioos:station:WAVCIS:CSI09:1,2015-11-01T03:00:00Z,29.1015,-89.9782,1012.29,11111222 
WAVCIS,ioos:station:WAVCIS:CSI09:1,2015-11-01T04:00:00Z,29.1015,-89.9782,1012.4,11111222 
WAVCIS,ioos:station:WAVCIS:CSI09:1,2015-11-01T05:00:00Z,29.1015,-89.9782,1012.02,11111222 
WAVCIS,ioos:station:WAVCIS:CSI09:1,2015-11-01T06:00:00Z,29.1015,-89.9782,1011.58,11111222 
WAVCIS,ioos:station:WAVCIS:CSI09:1,2015-11-01T07:00:00Z,29.1015,-89.9782,1011.35,11111222 
WAVCIS,ioos:station:WAVCIS:CSI09:1,2015-11-01T08:00:00Z,29.1015,-89.9782,1011.11,11111222 
WAVCIS,ioos:station:WAVCIS:CSI09:1,2015-11-01T09:00:00Z,29.1015,-89.9782,1010.82,11111222 
WAVCIS,ioos:station:WAVCIS:CSI09:1,2015-11-01T10:00:00Z,29.1015,-89.9782,1010.23,11111222 
WAVCIS,ioos:station:WAVCIS:CSI09:1,2015-11-01T11:00:00Z,29.1015,-89.9782,1009.88,11111222 
WAVCIS,ioos:station:WAVCIS:CSI09:1,2015-11-01T12:00:00Z,29.1015,-89.9782,1010.02,11111222 
WAVCIS,ioos:station:WAVCIS:CSI09:1,2015-11-01T13:00:00Z,29.1015,-89.9782,1010.55,11111222 
WAVCIS,ioos:station:WAVCIS:CSI09:1,2015-11-01T14:00:00Z,29.1015,-89.9782,1011.07,11111222 
WAVCIS,ioos:station:WAVCIS:CSI09:1,2015-11-01T15:00:00Z,29.1015,-89.9782,1011.75,11111222 
WAVCIS,ioos:station:WAVCIS:CSI09:1,2015-11-01T16:00:00Z,29.1015,-89.9782,1011.4,11111222 
WAVCIS,ioos:station:WAVCIS:CSI09:1,2015-11-01T17:00:00Z,29.1015,-89.9782,1011.56,11111222 
WAVCIS,ioos:station:WAVCIS:CSI09:1,2015-11-01T18:00:00Z,29.1015,-89.9782,1011.38,11111222 
WAVCIS,ioos:station:WAVCIS:CSI09:1,2015-11-01T19:00:00Z,29.1015,-89.9782,1010.63,11111222 
WAVCIS,ioos:station:WAVCIS:CSI09:1,2015-11-01T20:00:00Z,29.1015,-89.9782,1009.45,11111222 
WAVCIS,ioos:station:WAVCIS:CSI09:1,2015-11-01T21:00:00Z,29.1015,-89.9782,1008.76,11111222 
WAVCIS,ioos:station:WAVCIS:CSI09:1,2015-11-01T22:00:00Z,29.1015,-89.9782,1009.19,11111222 
WAVCIS,ioos:station:WAVCIS:CSI09:1,2015-11-01T23:00:00Z,29.1015,-89.9782,1009.61,11111222 
WAVCIS,ioos:station:WAVCIS:CSI09:1,2015-11-02T00:00:00Z,29.1015,-89.9782,1009.72,11111222 
WAVCIS,ioos:station:WAVCIS:CSI09:1,2015-11-02T01:00:00Z,29.1015,-89.9782,1010.44,11111222 
WAVCIS,ioos:station:WAVCIS:CSI09:1,2015-11-02T02:00:00Z,29.1015,-89.9782,1010.34,11111222 
WAVCIS,ioos:station:WAVCIS:CSI09:1,2015-11-02T03:00:00Z,29.1015,-89.9782,1010.71,11111222 
WAVCIS,ioos:station:WAVCIS:CSI09:1,2015-11-02T04:00:00Z,29.1015,-89.9782,1010.56,11111222 
WAVCIS,ioos:station:WAVCIS:CSI09:1,2015-11-02T05:00:00Z,29.1015,-89.9782,1009.97,11111222 
WAVCIS,ioos:station:WAVCIS:CSI09:1,2015-11-02T06:00:00Z,29.1015,-89.9782,1009.27,11111222 
WAVCIS,ioos:station:WAVCIS:CSI09:1,2015-11-02T07:00:00Z,29.1015,-89.9782,1008.85,11111222 
WAVCIS,ioos:station:WAVCIS:CSI09:1,2015-11-02T08:00:00Z,29.1015,-89.9782,1008.95,11111222 
WAVCIS,ioos:station:WAVCIS:CSI09:1,2015-11-02T09:00:00Z,29.1015,-89.9782,1008.77,11111222 
WAVCIS,ioos:station:WAVCIS:CSI09:1,2015-11-02T10:00:00Z,29.1015,-89.9782,1009.07,11111222 
WAVCIS,ioos:station:WAVCIS:CSI09:1,2015-11-02T11:00:00Z,29.1015,-89.9782,1010.06,11111222 
WAVCIS,ioos:station:WAVCIS:CSI09:1,2015-11-02T12:00:00Z,29.1015,-89.9782,1010.58,11111222 
WAVCIS,ioos:station:WAVCIS:CSI09:1,2015-11-02T13:00:00Z,29.1015,-89.9782,1011.14,11111222 
WAVCIS,ioos:station:WAVCIS:CSI09:1,2015-11-02T14:00:00Z,29.1015,-89.9782,1011.94,11111222 
WAVCIS,ioos:station:WAVCIS:CSI09:1,2015-11-02T15:00:00Z,29.1015,-89.9782,1012.45,11111222 
WAVCIS,ioos:station:WAVCIS:CSI09:1,2015-11-02T16:00:00Z,29.1015,-89.9782,1012.91,11111222 
WAVCIS,ioos:station:WAVCIS:CSI09:1,2015-11-02T17:00:00Z,29.1015,-89.9782,1012.9,11111222 
WAVCIS,ioos:station:WAVCIS:CSI09:1,2015-11-02T18:00:00Z,29.1015,-89.9782,1012.62,11111222 
WAVCIS,ioos:station:WAVCIS:CSI09:1,2015-11-02T19:00:00Z,29.1015,-89.9782,1012.36,11111222 
WAVCIS,ioos:station:WAVCIS:CSI09:1,2015-11-02T20:00:00Z,29.1015,-89.9782,1011.96,11111222 
WAVCIS,ioos:station:WAVCIS:CSI09:1,2015-11-02T21:00:00Z,29.1015,-89.9782,1011.9,11111222 
WAVCIS,ioos:station:WAVCIS:CSI09:1,2015-11-02T22:00:00Z,29.1015,-89.9782,1012.08,11111222 
WAVCIS,ioos:station:WAVCIS:CSI09:1,2015-11-02T23:00:00Z,29.1015,-89.9782,1012.51,11111222 
WAVCIS,ioos:station:WAVCIS:CSI09:1,2015-11-03T00:00:00Z,29.1015,-89.9782,1012.85,11111222 
WAVCIS,ioos:station:WAVCIS:CSI09:1,2015-11-03T01:00:00Z,29.1015,-89.9782,1013.43,11111222 
WAVCIS,ioos:station:WAVCIS:CSI09:1,2015-11-03T02:00:00Z,29.1015,-89.9782,1013.92,11111222 
WAVCIS,ioos:station:WAVCIS:CSI09:1,2015-11-03T03:00:00Z,29.1015,-89.9782,1014.25,11111222 
WAVCIS,ioos:station:WAVCIS:CSI09:1,2015-11-03T04:00:00Z,29.1015,-89.9782,1014.29,11111222 
WAVCIS,ioos:station:WAVCIS:CSI09:1,2015-11-03T05:00:00Z,29.1015,-89.9782,1014.31,11111222 
WAVCIS,ioos:station:WAVCIS:CSI09:1,2015-11-03T06:00:00Z,29.1015,-89.9782,1014.14,11111222 
WAVCIS,ioos:station:WAVCIS:CSI09:1,2015-11-03T07:00:00Z,29.1015,-89.9782,1014.17,11111222 
WAVCIS,ioos:station:WAVCIS:CSI09:1,2015-11-03T08:00:00Z,29.1015,-89.9782,1013.89,11111222 
WAVCIS,ioos:station:WAVCIS:CSI09:1,2015-11-03T09:00:00Z,29.1015,-89.9782,1013.83,11111222 
WAVCIS,ioos:station:WAVCIS:CSI09:1,2015-11-03T10:00:00Z,29.1015,-89.9782,1014.01,11111222 
WAVCIS,ioos:station:WAVCIS:CSI09:1,2015-11-03T11:00:00Z,29.1015,-89.9782,1014.68,11111222 
WAVCIS,ioos:station:WAVCIS:CSI09:1,2015-11-03T12:00:00Z,29.1015,-89.9782,1015.1,11111222 
WAVCIS,ioos:station:WAVCIS:CSI09:1,2015-11-03T13:00:00Z,29.1015,-89.9782,1015.79,11111222 
WAVCIS,ioos:station:WAVCIS:CSI09:1,2015-11-03T14:00:00Z,29.1015,-89.9782,1016.73,11111222 
WAVCIS,ioos:station:WAVCIS:CSI09:1,2015-11-03T15:00:00Z,29.1015,-89.9782,1017.28,11111222 
WAVCIS,ioos:station:WAVCIS:CSI09:1,2015-11-03T16:00:00Z,29.1015,-89.9782,1017.18,11111222 
WAVCIS,ioos:station:WAVCIS:CSI09:1,2015-11-03T17:00:00Z,29.1015,-89.9782,1017.06,11111222 
WAVCIS,ioos:station:WAVCIS:CSI09:1,2015-11-03T18:00:00Z,29.1015,-89.9782,1016.53,11111222 
WAVCIS,ioos:station:WAVCIS:CSI09:1,2015-11-03T19:00:00Z,29.1015,-89.9782,1015.8,11111222 
WAVCIS,ioos:station:WAVCIS:CSI09:1,2015-11-03T20:00:00Z,29.1015,-89.9782,1015.58,11111222 
WAVCIS,ioos:station:WAVCIS:CSI09:1,2015-11-03T21:00:00Z,29.1015,-89.9782,1015.56,11111222 
WAVCIS,ioos:station:WAVCIS:CSI09:1,2015-11-03T22:00:00Z,29.1015,-89.9782,1015.86,11111222 
WAVCIS,ioos:station:WAVCIS:CSI09:1,2015-11-03T23:00:00Z,29.1015,-89.9782,1016.02,11111222 
WAVCIS,ioos:station:WAVCIS:CSI09:1,2015-11-04T00:00:00Z,29.1015,-89.9782,1016.17,11111222 
WAVCIS,ioos:station:WAVCIS:CSI09:1,2015-11-04T01:00:00Z,29.1015,-89.9782,1016.65,11111222 
WAVCIS,ioos:station:WAVCIS:CSI09:1,2015-11-04T02:00:00Z,29.1015,-89.9782,1017.05,11111222 
WAVCIS,ioos:station:WAVCIS:CSI09:1,2015-11-04T03:00:00Z,29.1015,-89.9782,1017.13,11111222 
WAVCIS,ioos:station:WAVCIS:CSI09:1,2015-11-04T04:00:00Z,29.1015,-89.9782,1017.21,11111222 
WAVCIS,ioos:station:WAVCIS:CSI09:1,2015-11-04T05:00:00Z,29.1015,-89.9782,1017.12,11111222 
WAVCIS,ioos:station:WAVCIS:CSI09:1,2015-11-04T06:00:00Z,29.1015,-89.9782,1017.08,11111222 
WAVCIS,ioos:station:WAVCIS:CSI09:1,2015-11-04T07:00:00Z,29.1015,-89.9782,1017.13,11111222 
WAVCIS,ioos:station:WAVCIS:CSI09:1,2015-11-04T08:00:00Z,29.1015,-89.9782,1017.08,11111222 
WAVCIS,ioos:station:WAVCIS:CSI09:1,2015-11-04T09:00:00Z,29.1015,-89.9782,1017.11,11111222 
WAVCIS,ioos:station:WAVCIS:CSI09:1,2015-11-04T10:00:00Z,29.1015,-89.9782,1017.3,11111222 
WAVCIS,ioos:station:WAVCIS:CSI09:1,2015-11-04T11:00:00Z,29.1015,-89.9782,1017.61,11111222 
WAVCIS,ioos:station:WAVCIS:CSI09:1,2015-11-04T12:00:00Z,29.1015,-89.9782,1017.72,11111222 
WAVCIS,ioos:station:WAVCIS:CSI09:1,2015-11-04T13:00:00Z,29.1015,-89.9782,1018.34,11111222 
WAVCIS,ioos:station:WAVCIS:CSI09:1,2015-11-04T14:00:00Z,29.1015,-89.9782,1018.99,11111222 
WAVCIS,ioos:station:WAVCIS:CSI09:1,2015-11-04T15:00:00Z,29.1015,-89.9782,1019.61,11111222 
WAVCIS,ioos:station:WAVCIS:CSI09:1,2015-11-04T16:00:00Z,29.1015,-89.9782,1019.56,11111222 
WAVCIS,ioos:station:WAVCIS:CSI09:1,2015-11-04T17:00:00Z,29.1015,-89.9782,1019.43,11111222 
WAVCIS,ioos:station:WAVCIS:CSI09:1,2015-11-04T18:00:00Z,29.1015,-89.9782,1018.95,11111222 
WAVCIS,ioos:station:WAVCIS:CSI09:1,2015-11-04T19:00:00Z,29.1015,-89.9782,1018.15,11111222 
WAVCIS,ioos:station:WAVCIS:CSI09:1,2015-11-04T20:00:00Z,29.1015,-89.9782,1017.98,11111222 
WAVCIS,ioos:station:WAVCIS:CSI09:1,2015-11-04T21:00:00Z,29.1015,-89.9782,1018.04,11111222 
WAVCIS,ioos:station:WAVCIS:CSI09:1,2015-11-04T22:00:00Z,29.1015,-89.9782,1017.99,11111222 
WAVCIS,ioos:station:WAVCIS:CSI09:1,2015-11-04T23:00:00Z,29.1015,-89.9782,1018.06,11111222 
WAVCIS,ioos:station:WAVCIS:CSI09:1,2015-11-05T00:00:00Z,29.1015,-89.9782,1018.24,11111222 
WAVCIS,ioos:station:WAVCIS:CSI09:1,2015-11-05T01:00:00Z,29.1015,-89.9782,1018.49,11111222 
WAVCIS,ioos:station:WAVCIS:CSI09:1,2015-11-05T02:00:00Z,29.1015,-89.9782,1019.11,11111222 
WAVCIS,ioos:station:WAVCIS:CSI09:1,2015-11-05T03:00:00Z,29.1015,-89.9782,1019.27,11111222 
WAVCIS,ioos:station:WAVCIS:CSI09:1,2015-11-05T04:00:00Z,29.1015,-89.9782,1019.17,11111222 
WAVCIS,ioos:station:WAVCIS:CSI09:1,2015-11-05T05:00:00Z,29.1015,-89.9782,1019.02,11111222 
WAVCIS,ioos:station:WAVCIS:CSI09:1,2015-11-05T06:00:00Z,29.1015,-89.9782,1018.53,11111222 
WAVCIS,ioos:station:WAVCIS:CSI09:1,2015-11-05T07:00:00Z,29.1015,-89.9782,1018.25,11111222 
WAVCIS,ioos:station:WAVCIS:CSI09:1,2015-11-05T08:00:00Z,29.1015,-89.9782,1018.06,11111222 
WAVCIS,ioos:station:WAVCIS:CSI09:1,2015-11-05T09:00:00Z,29.1015,-89.9782,1017.78,11111222 
WAVCIS,ioos:station:WAVCIS:CSI09:1,2015-11-05T10:00:00Z,29.1015,-89.9782,1017.83,11111222 
WAVCIS,ioos:station:WAVCIS:CSI09:1,2015-11-05T11:00:00Z,29.1015,-89.9782,1018.03,11111222 
WAVCIS,ioos:station:WAVCIS:CSI09:1,2015-11-05T12:00:00Z,29.1015,-89.9782,1018.4,11111222 
WAVCIS,ioos:station:WAVCIS:CSI09:1,2015-11-05T13:00:00Z,29.1015,-89.9782,1018.94,11111222 
WAVCIS,ioos:station:WAVCIS:CSI09:1,2015-11-05T14:00:00Z,29.1015,-89.9782,1019.29,11111222 
WAVCIS,ioos:station:WAVCIS:CSI09:1,2015-11-05T15:00:00Z,29.1015,-89.9782,1019.69,11111222 
WAVCIS,ioos:station:WAVCIS:CSI09:1,2015-11-05T16:00:00Z,29.1015,-89.9782,1019.83,11111222 
WAVCIS,ioos:station:WAVCIS:CSI09:1,2015-11-05T17:00:00Z,29.1015,-89.9782,1019.51,11111222 
WAVCIS,ioos:station:WAVCIS:CSI09:1,2015-11-05T18:00:00Z,29.1015,-89.9782,1018.75,11111222 
WAVCIS,ioos:station:WAVCIS:CSI09:1,2015-11-05T19:00:00Z,29.1015,-89.9782,1018.08,11111222 
WAVCIS,ioos:station:WAVCIS:CSI09:1,2015-11-05T20:00:00Z,29.1015,-89.9782,1017.64,11111222 
WAVCIS,ioos:station:WAVCIS:CSI09:1,2015-11-05T21:00:00Z,29.1015,-89.9782,1017.4,11111222 
WAVCIS,ioos:station:WAVCIS:CSI09:1,2015-11-05T22:00:00Z,29.1015,-89.9782,1017.58,11111222 
WAVCIS,ioos:station:WAVCIS:CSI09:1,2015-11-05T23:00:00Z,29.1015,-89.9782,1017.59,11111222 
WAVCIS,ioos:station:WAVCIS:CSI09:1,2015-11-06T00:00:00Z,29.1015,-89.9782,1017.73,11111222 
WAVCIS,ioos:station:WAVCIS:CSI09:1,2015-11-06T01:00:00Z,29.1015,-89.9782,1017.92,11111222 
WAVCIS,ioos:station:WAVCIS:CSI09:1,2015-11-06T02:00:00Z,29.1015,-89.9782,1018.08,11111222 
WAVCIS,ioos:station:WAVCIS:CSI09:1,2015-11-06T03:00:00Z,29.1015,-89.9782,1018.38,11111222 
WAVCIS,ioos:station:WAVCIS:CSI09:1,2015-11-06T04:00:00Z,29.1015,-89.9782,1018.17,11111222 
WAVCIS,ioos:station:WAVCIS:CSI09:1,2015-11-06T05:00:00Z,29.1015,-89.9782,1018.02,11111222 
WAVCIS,ioos:station:WAVCIS:CSI09:1,2015-11-06T06:00:00Z,29.1015,-89.9782,1018.17,11111222 
WAVCIS,ioos:station:WAVCIS:CSI09:1,2015-11-06T07:00:00Z,29.1015,-89.9782,1017.84,11111222 
WAVCIS,ioos:station:WAVCIS:CSI09:1,2015-11-06T08:00:00Z,29.1015,-89.9782,1017.84,11111222 
WAVCIS,ioos:station:WAVCIS:CSI09:1,2015-11-06T09:00:00Z,29.1015,-89.9782,1017.58,11111222 
WAVCIS,ioos:station:WAVCIS:CSI09:1,2015-11-06T10:00:00Z,29.1015,-89.9782,1017.6,11111222 
WAVCIS,ioos:station:WAVCIS:CSI09:1,2015-11-06T11:00:00Z,29.1015,-89.9782,1017.8,11111222 
WAVCIS,ioos:station:WAVCIS:CSI09:1,2015-11-06T12:00:00Z,29.1015,-89.9782,1018.2,11111222 
WAVCIS,ioos:station:WAVCIS:CSI09:1,2015-11-06T13:00:00Z,29.1015,-89.9782,1018.52,11111222 
WAVCIS,ioos:station:WAVCIS:CSI09:1,2015-11-06T14:00:00Z,29.1015,-89.9782,1019.1,11111222 
WAVCIS,ioos:station:WAVCIS:CSI09:1,2015-11-06T15:00:00Z,29.1015,-89.9782,1019.42,11111222 
WAVCIS,ioos:station:WAVCIS:CSI09:1,2015-11-06T16:00:00Z,29.1015,-89.9782,1019.6,11111222 
WAVCIS,ioos:station:WAVCIS:CSI09:1,2015-11-06T17:00:00Z,29.1015,-89.9782,1019.37,11111222 
WAVCIS,ioos:station:WAVCIS:CSI09:1,2015-11-06T18:00:00Z,29.1015,-89.9782,1018.54,11111222 
WAVCIS,ioos:station:WAVCIS:CSI09:1,2015-11-06T19:00:00Z,29.1015,-89.9782,1017.49,11111222 
WAVCIS,ioos:station:WAVCIS:CSI09:1,2015-11-06T20:00:00Z,29.1015,-89.9782,1016.72,11111222 
WAVCIS,ioos:station:WAVCIS:CSI09:1,2015-11-06T21:00:00Z,29.1015,-89.9782,1016.51,11111222 
WAVCIS,ioos:station:WAVCIS:CSI09:1,2015-11-06T22:00:00Z,29.1015,-89.9782,1016.35,11111222 
WAVCIS,ioos:station:WAVCIS:CSI09:1,2015-11-06T23:00:00Z,29.1015,-89.9782,1016.49,11111222 
WAVCIS,ioos:station:WAVCIS:CSI09:1,2015-11-07T00:00:00Z,29.1015,-89.9782,1017.23,11111222 
WAVCIS,ioos:station:WAVCIS:CSI09:1,2015-11-07T01:00:00Z,29.1015,-89.9782,1017.64,11111222 
WAVCIS,ioos:station:WAVCIS:CSI09:1,2015-11-07T02:00:00Z,29.1015,-89.9782,1017.53,11111222 
WAVCIS,ioos:station:WAVCIS:CSI09:1,2015-11-07T03:00:00Z,29.1015,-89.9782,1017.27,11111222 
WAVCIS,ioos:station:WAVCIS:CSI09:1,2015-11-07T04:00:00Z,29.1015,-89.9782,1017.38,11111222 
WAVCIS,ioos:station:WAVCIS:CSI09:1,2015-11-07T05:00:00Z,29.1015,-89.9782,1017.21,11111222 
WAVCIS,ioos:station:WAVCIS:CSI09:1,2015-11-07T06:00:00Z,29.1015,-89.9782,1016.88,11111222 
WAVCIS,ioos:station:WAVCIS:CSI09:1,2015-11-07T07:00:00Z,29.1015,-89.9782,1016.42,11111222 
WAVCIS,ioos:station:WAVCIS:CSI09:1,2015-11-07T08:00:00Z,29.1015,-89.9782,1016.16,11111222 
WAVCIS,ioos:station:WAVCIS:CSI09:1,2015-11-07T09:00:00Z,29.1015,-89.9782,1016.12,11111222 
WAVCIS,ioos:station:WAVCIS:CSI09:1,2015-11-07T10:00:00Z,29.1015,-89.9782,1015.91,11111222 
WAVCIS,ioos:station:WAVCIS:CSI09:1,2015-11-07T11:00:00Z,29.1015,-89.9782,1015.88,11111222 
WAVCIS,ioos:station:WAVCIS:CSI09:1,2015-11-07T12:00:00Z,29.1015,-89.9782,1016.22,11111222 
WAVCIS,ioos:station:WAVCIS:CSI09:1,2015-11-07T13:00:00Z,29.1015,-89.9782,1016.69,11111222 
WAVCIS,ioos:station:WAVCIS:CSI09:1,2015-11-07T14:00:00Z,29.1015,-89.9782,1016.56,11111222 
WAVCIS,ioos:station:WAVCIS:CSI09:1,2015-11-07T15:00:00Z,29.1015,-89.9782,1017.42,11111222 
WAVCIS,ioos:station:WAVCIS:CSI09:1,2015-11-07T16:00:00Z,29.1015,-89.9782,1017.74,11111222 
WAVCIS,ioos:station:WAVCIS:CSI09:1,2015-11-07T17:00:00Z,29.1015,-89.9782,1016.79,11111222 
WAVCIS,ioos:station:WAVCIS:CSI09:1,2015-11-07T18:00:00Z,29.1015,-89.9782,1015.73,11111222 
WAVCIS,ioos:station:WAVCIS:CSI09:1,2015-11-07T19:00:00Z,29.1015,-89.9782,1014.9,11111222 
WAVCIS,ioos:station:WAVCIS:CSI09:1,2015-11-07T20:00:00Z,29.1015,-89.9782,1013.83,11111222 
WAVCIS,ioos:station:WAVCIS:CSI09:1,2015-11-07T21:00:00Z,29.1015,-89.9782,1013.81,11111222 
WAVCIS,ioos:station:WAVCIS:CSI09:1,2015-11-07T22:00:00Z,29.1015,-89.9782,1013.77,11111222 
WAVCIS,ioos:station:WAVCIS:CSI09:1,2015-11-07T23:00:00Z,29.1015,-89.9782,1013.07,11111222 
WAVCIS,ioos:station:WAVCIS:CSI09:1,2015-11-08T00:00:00Z,29.1015,-89.9782,1013.24,11111222 
WAVCIS,ioos:station:WAVCIS:CSI09:1,2015-11-08T01:00:00Z,29.1015,-89.9782,1013.54,11111222 
WAVCIS,ioos:station:WAVCIS:CSI09:1,2015-11-08T02:00:00Z,29.1015,-89.9782,1013.99,11111222 
WAVCIS,ioos:station:WAVCIS:CSI09:1,2015-11-08T03:00:00Z,29.1015,-89.9782,1014.38,11111222 
WAVCIS,ioos:station:WAVCIS:CSI09:1,2015-11-08T04:00:00Z,29.1015,-89.9782,1013.59,11111222 
WAVCIS,ioos:station:WAVCIS:CSI09:1,2015-11-08T05:00:00Z,29.1015,-89.9782,1013.41,11111222 
WAVCIS,ioos:station:WAVCIS:CSI09:1,2015-11-08T06:00:00Z,29.1015,-89.9782,1013.43,11111222 
WAVCIS,ioos:station:WAVCIS:CSI09:1,2015-11-08T07:00:00Z,29.1015,-89.9782,1013.38,11111222 
WAVCIS,ioos:station:WAVCIS:CSI09:1,2015-11-08T08:00:00Z,29.1015,-89.9782,1012.88,11111222 
WAVCIS,ioos:station:WAVCIS:CSI09:1,2015-11-08T09:00:00Z,29.1015,-89.9782,1011.13,11111222 
WAVCIS,ioos:station:WAVCIS:CSI09:1,2015-11-08T10:00:00Z,29.1015,-89.9782,1011.13,11111222 
WAVCIS,ioos:station:WAVCIS:CSI09:1,2015-11-08T11:00:00Z,29.1015,-89.9782,1012.14,11111222 
WAVCIS,ioos:station:WAVCIS:CSI09:1,2015-11-08T12:00:00Z,29.1015,-89.9782,1012.66,11111222 
WAVCIS,ioos:station:WAVCIS:CSI09:1,2015-11-08T13:00:00Z,29.1015,-89.9782,1013.11,11111222 
WAVCIS,ioos:station:WAVCIS:CSI09:1,2015-11-08T14:00:00Z,29.1015,-89.9782,1013.56,11111222 
WAVCIS,ioos:station:WAVCIS:CSI09:1,2015-11-08T15:00:00Z,29.1015,-89.9782,1014.12,11111222 
WAVCIS,ioos:station:WAVCIS:CSI09:1,2015-11-08T16:00:00Z,29.1015,-89.9782,1014.25,11111222 
WAVCIS,ioos:station:WAVCIS:CSI09:1,2015-11-08T17:00:00Z,29.1015,-89.9782,1013.89,11111222 
WAVCIS,ioos:station:WAVCIS:CSI09:1,2015-11-08T18:00:00Z,29.1015,-89.9782,1013.32,11111222 
WAVCIS,ioos:station:WAVCIS:CSI09:1,2015-11-08T19:00:00Z,29.1015,-89.9782,1012.68,11111222 
WAVCIS,ioos:station:WAVCIS:CSI09:1,2015-11-08T20:00:00Z,29.1015,-89.9782,1012.39,11111222 
WAVCIS,ioos:station:WAVCIS:CSI09:1,2015-11-08T21:00:00Z,29.1015,-89.9782,1012.59,11111222 
WAVCIS,ioos:station:WAVCIS:CSI09:1,2015-11-08T22:00:00Z,29.1015,-89.9782,1013.01,11111222 
WAVCIS,ioos:station:WAVCIS:CSI09:1,2015-11-08T23:00:00Z,29.1015,-89.9782,1013.27,11111222 
WAVCIS,ioos:station:WAVCIS:CSI09:1,2015-11-09T00:00:00Z,29.1015,-89.9782,1013.77,11111222 
WAVCIS,ioos:station:WAVCIS:CSI09:1,2015-11-09T01:00:00Z,29.1015,-89.9782,1014.75,11111222 
WAVCIS,ioos:station:WAVCIS:CSI09:1,2015-11-09T02:00:00Z,29.1015,-89.9782,1015.01,11111222 
WAVCIS,ioos:station:WAVCIS:CSI09:1,2015-11-09T03:00:00Z,29.1015,-89.9782,1015.29,11111222 
WAVCIS,ioos:station:WAVCIS:CSI09:1,2015-11-09T04:00:00Z,29.1015,-89.9782,1015.73,11111222 
WAVCIS,ioos:station:WAVCIS:CSI09:1,2015-11-09T05:00:00Z,29.1015,-89.9782,1015.65,11111222 
WAVCIS,ioos:station:WAVCIS:CSI09:1,2015-11-09T06:00:00Z,29.1015,-89.9782,1015.32,11111222 
WAVCIS,ioos:station:WAVCIS:CSI09:1,2015-11-09T07:00:00Z,29.1015,-89.9782,1015.47,11111222 
WAVCIS,ioos:station:WAVCIS:CSI09:1,2015-11-09T08:00:00Z,29.1015,-89.9782,1015.28,11111222 
WAVCIS,ioos:station:WAVCIS:CSI09:1,2015-11-09T09:00:00Z,29.1015,-89.9782,1015.55,11111222 
WAVCIS,ioos:station:WAVCIS:CSI09:1,2015-11-09T10:00:00Z,29.1015,-89.9782,1015.81,11111222 
WAVCIS,ioos:station:WAVCIS:CSI09:1,2015-11-09T11:00:00Z,29.1015,-89.9782,1016.06,11111222 
WAVCIS,ioos:station:WAVCIS:CSI09:1,2015-11-09T12:00:00Z,29.1015,-89.9782,1016.22,11111222 
WAVCIS,ioos:station:WAVCIS:CSI09:1,2015-11-09T13:00:00Z,29.1015,-89.9782,1016.88,11111222 
WAVCIS,ioos:station:WAVCIS:CSI09:1,2015-11-09T14:00:00Z,29.1015,-89.9782,1017.94,11111222 
WAVCIS,ioos:station:WAVCIS:CSI09:1,2015-11-09T15:00:00Z,29.1015,-89.9782,1018.72,11111222 
WAVCIS,ioos:station:WAVCIS:CSI09:1,2015-11-09T16:00:00Z,29.1015,-89.9782,1019.01,11111222 
WAVCIS,ioos:station:WAVCIS:CSI09:1,2015-11-09T17:00:00Z,29.1015,-89.9782,1018.56,11111222 
WAVCIS,ioos:station:WAVCIS:CSI09:1,2015-11-09T18:00:00Z,29.1015,-89.9782,1018.01,11111222 
WAVCIS,ioos:station:WAVCIS:CSI09:1,2015-11-09T19:00:00Z,29.1015,-89.9782,1017.25,11111222 
WAVCIS,ioos:station:WAVCIS:CSI09:1,2015-11-09T20:00:00Z,29.1015,-89.9782,1016.87,11111222 
WAVCIS,ioos:station:WAVCIS:CSI09:1,2015-11-09T21:00:00Z,29.1015,-89.9782,1016.81,11111222 
WAVCIS,ioos:station:WAVCIS:CSI09:1,2015-11-09T22:00:00Z,29.1015,-89.9782,1016.84,11111222 
WAVCIS,ioos:station:WAVCIS:CSI09:1,2015-11-09T23:00:00Z,29.1015,-89.9782,1017.08,11111222 
WAVCIS,ioos:station:WAVCIS:CSI09:1,2015-11-10T00:00:00Z,29.1015,-89.9782,1017.12,11111222 
WAVCIS,ioos:station:WAVCIS:CSI09:1,2015-11-10T01:00:00Z,29.1015,-89.9782,1017.79,11111222 
WAVCIS,ioos:station:WAVCIS:CSI09:1,2015-11-10T02:00:00Z,29.1015,-89.9782,1018.49,11111222 
WAVCIS,ioos:station:WAVCIS:CSI09:1,2015-11-10T03:00:00Z,29.1015,-89.9782,1018.92,11111222 
WAVCIS,ioos:station:WAVCIS:CSI09:1,2015-11-10T04:00:00Z,29.1015,-89.9782,1018.81,11111222 
WAVCIS,ioos:station:WAVCIS:CSI09:1,2015-11-10T05:00:00Z,29.1015,-89.9782,1018.87,11111222 
WAVCIS,ioos:station:WAVCIS:CSI09:1,2015-11-10T06:00:00Z,29.1015,-89.9782,1018.7,11111222 
WAVCIS,ioos:station:WAVCIS:CSI09:1,2015-11-10T07:00:00Z,29.1015,-89.9782,1018.43,11111222 
WAVCIS,ioos:station:WAVCIS:CSI09:1,2015-11-10T08:00:00Z,29.1015,-89.9782,1018.44,11111222 
WAVCIS,ioos:station:WAVCIS:CSI09:1,2015-11-10T09:00:00Z,29.1015,-89.9782,1018.48,11111222 
WAVCIS,ioos:station:WAVCIS:CSI09:1,2015-11-10T10:00:00Z,29.1015,-89.9782,1018.65,11111222 
WAVCIS,ioos:station:WAVCIS:CSI09:1,2015-11-10T11:00:00Z,29.1015,-89.9782,1018.99,11111222 
WAVCIS,ioos:station:WAVCIS:CSI09:1,2015-11-10T12:00:00Z,29.1015,-89.9782,1019.38,11111222 
WAVCIS,ioos:station:WAVCIS:CSI09:1,2015-11-10T13:00:00Z,29.1015,-89.9782,1019.97,11111222 
WAVCIS,ioos:station:WAVCIS:CSI09:1,2015-11-10T14:00:00Z,29.1015,-89.9782,1020.77,11111222 
WAVCIS,ioos:station:WAVCIS:CSI09:1,2015-11-10T15:00:00Z,29.1015,-89.9782,1021.38,11111222 
WAVCIS,ioos:station:WAVCIS:CSI09:1,2015-11-10T16:00:00Z,29.1015,-89.9782,1021.55,11111222 
WAVCIS,ioos:station:WAVCIS:CSI09:1,2015-11-10T17:00:00Z,29.1015,-89.9782,1021.15,11111222 
WAVCIS,ioos:station:WAVCIS:CSI09:1,2015-11-10T18:00:00Z,29.1015,-89.9782,1020.26,11111222 
WAVCIS,ioos:station:WAVCIS:CSI09:1,2015-11-10T19:00:00Z,29.1015,-89.9782,1019.15,11111222 
WAVCIS,ioos:station:WAVCIS:CSI09:1,2015-11-10T20:00:00Z,29.1015,-89.9782,1018.46,11111222 
WAVCIS,ioos:station:WAVCIS:CSI09:1,2015-11-10T21:00:00Z,29.1015,-89.9782,1018.18,11111222 
WAVCIS,ioos:station:WAVCIS:CSI09:1,2015-11-10T22:00:00Z,29.1015,-89.9782,1018.08,11111222 
WAVCIS,ioos:station:WAVCIS:CSI09:1,2015-11-10T23:00:00Z,29.1015,-89.9782,1017.81,11111222 
WAVCIS,ioos:station:WAVCIS:CSI09:1,2015-11-11T00:00:00Z,29.1015,-89.9782,1018.16,11111222 
WAVCIS,ioos:station:WAVCIS:CSI09:1,2015-11-11T01:00:00Z,29.1015,-89.9782,1018.37,11111222 
WAVCIS,ioos:station:WAVCIS:CSI09:1,2015-11-11T02:00:00Z,29.1015,-89.9782,1018.24,11111222 
WAVCIS,ioos:station:WAVCIS:CSI09:1,2015-11-11T03:00:00Z,29.1015,-89.9782,1018.6,11111222 
WAVCIS,ioos:station:WAVCIS:CSI09:1,2015-11-11T04:00:00Z,29.1015,-89.9782,1018.12,11111222 
WAVCIS,ioos:station:WAVCIS:CSI09:1,2015-11-11T05:00:00Z,29.1015,-89.9782,1017.87,11111222 
WAVCIS,ioos:station:WAVCIS:CSI09:1,2015-11-11T06:00:00Z,29.1015,-89.9782,1017.62,11111222 
WAVCIS,ioos:station:WAVCIS:CSI09:1,2015-11-11T07:00:00Z,29.1015,-89.9782,1017.34,11111222 
WAVCIS,ioos:station:WAVCIS:CSI09:1,2015-11-11T08:00:00Z,29.1015,-89.9782,1017.06,11111222 
WAVCIS,ioos:station:WAVCIS:CSI09:1,2015-11-11T09:00:00Z,29.1015,-89.9782,1017.05,11111222 
WAVCIS,ioos:station:WAVCIS:CSI09:1,2015-11-11T10:00:00Z,29.1015,-89.9782,1016.64,11111222 
WAVCIS,ioos:station:WAVCIS:CSI09:1,2015-11-11T11:00:00Z,29.1015,-89.9782,1016.6,11111222 
WAVCIS,ioos:station:WAVCIS:CSI09:1,2015-11-11T12:00:00Z,29.1015,-89.9782,1016.84,11111222 
WAVCIS,ioos:station:WAVCIS:CSI09:1,2015-11-11T13:00:00Z,29.1015,-89.9782,1017.28,11111222 
WAVCIS,ioos:station:WAVCIS:CSI09:1,2015-11-11T14:00:00Z,29.1015,-89.9782,1017.75,11111222 
WAVCIS,ioos:station:WAVCIS:CSI09:1,2015-11-11T15:00:00Z,29.1015,-89.9782,1018.29,11111222 
WAVCIS,ioos:station:WAVCIS:CSI09:1,2015-11-11T16:00:00Z,29.1015,-89.9782,1018.39,11111222 
WAVCIS,ioos:station:WAVCIS:CSI09:1,2015-11-11T17:00:00Z,29.1015,-89.9782,1017.75,11111222 
WAVCIS,ioos:station:WAVCIS:CSI09:1,2015-11-11T18:00:00Z,29.1015,-89.9782,1016.57,11111222 
WAVCIS,ioos:station:WAVCIS:CSI09:1,2015-11-11T19:00:00Z,29.1015,-89.9782,1015.79,11111222 
WAVCIS,ioos:station:WAVCIS:CSI09:1,2015-11-11T20:00:00Z,29.1015,-89.9782,1015.35,11111222 
WAVCIS,ioos:station:WAVCIS:CSI09:1,2015-11-11T21:00:00Z,29.1015,-89.9782,1015.02,11111222 
WAVCIS,ioos:station:WAVCIS:CSI09:1,2015-11-11T22:00:00Z,29.1015,-89.9782,1014.68,11111222 